Time,TemperatureF,DewpointF,PressureIn,WindDirection,WindDirectionDegrees,WindSpeedMPH,WindSpeedGustMPH,Humidity,HourlyPrecipIn,Conditions,Clouds,dailyrainin,SoftwareType,DateUTC
2013-11-20 00:00:00,30.6,21.0,30.45,NW,319,0.0,2.0,67,0.00,,---,0.00,VWS V14.01,2013-11-20 05:00:00,
2013-11-20 00:01:00,30.6,21.0,30.45,NW,319,0.0,0.0,67,0.00,,---,0.00,VWS V14.01,2013-11-20 05:01:00,
2013-11-20 00:02:00,30.5,20.9,30.45,NW,319,0.0,0.0,67,0.00,,---,0.00,VWS V14.01,2013-11-20 05:02:00,
2013-11-20 00:07:00,30.2,20.9,30.45,NW,319,0.0,0.0,68,0.00,,---,0.00,VWS V14.01,2013-11-20 05:07:00,
2013-11-20 00:12:00,29.8,20.5,30.45,NW,307,0.0,1.0,68,0.00,,---,0.00,VWS V14.01,2013-11-20 05:12:00,
2013-11-20 00:17:00,29.3,20.4,30.45,WSW,237,0.0,1.0,69,0.00,,---,0.00,VWS V14.01,2013-11-20 05:17:00,
2013-11-20 00:22:00,29.1,20.5,30.45,WSW,238,0.0,1.0,70,0.00,,---,0.00,VWS V14.01,2013-11-20 05:22:00,
2013-11-20 00:27:00,28.9,20.4,30.45,WNW,283,0.0,1.0,70,0.00,,---,0.00,VWS V14.01,2013-11-20 05:27:00,
2013-11-20 00:30:00,28.7,20.5,30.45,West,260,0.0,1.0,71,0.00,,---,0.00,VWS V14.01,2013-11-20 05:30:00,
2013-11-20 00:32:00,28.8,20.6,30.45,West,269,0.0,1.0,71,0.00,,---,0.00,VWS V14.01,2013-11-20 05:32:00,
2013-11-20 00:37:00,28.7,20.5,30.46,West,270,0.0,1.0,71,0.00,,---,0.00,VWS V14.01,2013-11-20 05:37:00,
2013-11-20 00:42:00,28.4,20.5,30.46,West,273,0.0,1.0,72,0.00,,---,0.00,VWS V14.01,2013-11-20 05:42:00,
2013-11-20 00:47:00,28.1,20.6,30.46,NW,312,1.0,1.0,73,0.00,,---,0.00,VWS V14.01,2013-11-20 05:47:00,
2013-11-20 00:52:00,28.2,20.4,30.46,NW,307,0.0,1.0,72,0.00,,---,0.00,VWS V14.01,2013-11-20 05:52:00,
2013-11-20 00:57:00,28.0,20.5,30.46,NW,307,0.0,1.0,73,0.00,,---,0.00,VWS V14.01,2013-11-20 05:57:00,
2013-11-20 01:00:00,27.7,20.2,30.46,SSE,155,0.0,1.0,73,0.00,,---,0.00,VWS V14.01,2013-11-20 06:00:00,
2013-11-20 01:02:00,27.5,20.3,30.46,SSE,155,0.0,0.0,74,0.00,,---,0.00,VWS V14.01,2013-11-20 06:02:00,
2013-11-20 01:07:00,27.3,21.1,30.46,SSE,155,0.0,0.0,77,0.00,,---,0.00,VWS V14.01,2013-11-20 06:07:00,
2013-11-20 01:12:00,27.2,21.0,30.46,South,170,0.0,1.0,77,0.00,,---,0.00,VWS V14.01,2013-11-20 06:12:00,
2013-11-20 01:17:00,27.4,21.5,30.46,SE,146,0.0,1.0,78,0.00,,---,0.00,VWS V14.01,2013-11-20 06:17:00,
2013-11-20 01:22:00,27.4,21.5,30.47,South,178,0.0,1.0,78,0.00,,---,0.00,VWS V14.01,2013-11-20 06:22:00,
2013-11-20 01:27:00,27.6,21.6,30.47,SSE,151,0.0,1.0,78,0.00,,---,0.00,VWS V14.01,2013-11-20 06:27:00,
2013-11-20 01:30:00,27.5,21.2,30.47,West,265,0.0,1.0,77,0.00,,---,0.00,VWS V14.01,2013-11-20 06:30:00,
2013-11-20 01:32:00,27.3,21.4,30.47,West,265,0.0,0.0,78,0.00,,---,0.00,VWS V14.01,2013-11-20 06:32:00,
2013-11-20 01:37:00,27.3,21.4,30.47,West,264,0.0,0.0,78,0.00,,---,0.00,VWS V14.01,2013-11-20 06:37:00,
2013-11-20 01:42:00,27.5,21.5,30.47,West,264,0.0,0.0,78,0.00,,---,0.00,VWS V14.01,2013-11-20 06:42:00,
2013-11-20 01:47:00,27.2,21.0,30.48,NE,43,0.0,2.0,77,0.00,,---,0.00,VWS V14.01,2013-11-20 06:47:00,
2013-11-20 01:52:00,26.6,20.7,30.48,SW,214,0.0,2.0,78,0.00,,---,0.00,VWS V14.01,2013-11-20 06:52:00,
2013-11-20 01:57:00,26.8,20.9,30.48,SW,228,0.0,2.0,78,0.00,,---,0.00,VWS V14.01,2013-11-20 06:57:00,
2013-11-20 02:00:00,26.9,21.0,30.48,SW,223,0.0,2.0,78,0.00,,---,0.00,VWS V14.01,2013-11-20 07:00:00,
2013-11-20 02:02:00,27.1,20.9,30.48,WNW,285,0.0,0.0,77,0.00,,---,0.00,VWS V14.01,2013-11-20 07:02:00,
2013-11-20 02:07:00,27.4,20.8,30.48,North,357,0.0,1.0,76,0.00,,---,0.00,VWS V14.01,2013-11-20 07:07:00,
2013-11-20 02:12:00,28.1,20.9,30.48,WSW,251,0.0,5.0,74,0.00,,---,0.00,VWS V14.01,2013-11-20 07:12:00,
2013-11-20 02:17:00,28.6,21.1,30.49,WSW,255,0.0,5.0,73,0.00,,---,0.00,VWS V14.01,2013-11-20 07:17:00,
2013-11-20 02:22:00,28.4,20.9,30.49,SSW,207,0.0,5.0,73,0.00,,---,0.00,VWS V14.01,2013-11-20 07:22:00,
2013-11-20 02:27:00,28.1,20.9,30.49,WNW,300,0.0,5.0,74,0.00,,---,0.00,VWS V14.01,2013-11-20 07:27:00,
2013-11-20 02:30:00,27.8,20.6,30.50,North,10,0.0,5.0,74,0.00,,---,0.00,VWS V14.01,2013-11-20 07:30:00,
2013-11-20 02:32:00,27.7,20.5,30.50,North,10,0.0,0.0,74,0.00,,---,0.00,VWS V14.01,2013-11-20 07:32:00,
2013-11-20 02:37:00,27.7,20.5,30.50,South,173,0.0,2.0,74,0.00,,---,0.00,VWS V14.01,2013-11-20 07:37:00,
2013-11-20 02:42:00,28.3,20.8,30.50,NW,326,0.0,3.0,73,0.00,,---,0.00,VWS V14.01,2013-11-20 07:42:00,
2013-11-20 02:47:00,28.5,20.6,30.50,NNW,328,0.0,3.0,72,0.00,,---,0.00,VWS V14.01,2013-11-20 07:47:00,
2013-11-20 02:52:00,28.9,20.7,30.49,NW,322,0.0,4.0,71,0.00,,---,0.00,VWS V14.01,2013-11-20 07:52:00,
2013-11-20 02:57:00,29.2,21.0,30.49,NNW,340,1.0,4.0,71,0.00,,---,0.00,VWS V14.01,2013-11-20 07:57:00,
2013-11-20 03:00:00,29.3,21.1,30.49,NW,321,1.0,4.0,71,0.00,,---,0.00,VWS V14.01,2013-11-20 08:00:00,
2013-11-20 03:02:00,29.3,21.1,30.49,SSW,210,0.0,2.0,71,0.00,,---,0.00,VWS V14.01,2013-11-20 08:02:00,
2013-11-20 03:07:00,29.6,21.0,30.49,NNW,347,1.0,5.0,70,0.00,,---,0.00,VWS V14.01,2013-11-20 08:07:00,
2013-11-20 03:12:00,29.8,20.9,30.49,NNE,13,0.0,5.0,69,0.00,,---,0.00,VWS V14.01,2013-11-20 08:12:00,
2013-11-20 03:17:00,29.6,20.7,30.49,ENE,68,1.0,5.0,69,0.00,,---,0.00,VWS V14.01,2013-11-20 08:17:00,
2013-11-20 03:22:00,30.0,20.7,30.50,East,84,0.0,5.0,68,0.00,,---,0.00,VWS V14.01,2013-11-20 08:22:00,
2013-11-20 03:27:00,29.8,20.5,30.50,ESE,110,0.0,5.0,68,0.00,,---,0.00,VWS V14.01,2013-11-20 08:27:00,
2013-11-20 03:30:00,29.7,20.5,30.50,ESE,113,0.0,5.0,68,0.00,,---,0.00,VWS V14.01,2013-11-20 08:30:00,
2013-11-20 03:32:00,29.6,20.7,30.50,SSE,150,2.0,2.0,69,0.00,,---,0.00,VWS V14.01,2013-11-20 08:32:00,
2013-11-20 03:37:00,29.4,20.5,30.50,East,94,0.0,2.0,69,0.00,,---,0.00,VWS V14.01,2013-11-20 08:37:00,
2013-11-20 03:42:00,29.1,20.5,30.50,West,267,0.0,2.0,70,0.00,,---,0.00,VWS V14.01,2013-11-20 08:42:00,
2013-11-20 03:47:00,28.8,20.3,30.51,SSW,200,0.0,2.0,70,0.00,,---,0.00,VWS V14.01,2013-11-20 08:47:00,
2013-11-20 03:52:00,28.6,20.4,30.51,SSW,205,1.0,2.0,71,0.00,,---,0.00,VWS V14.01,2013-11-20 08:52:00,
2013-11-20 03:57:00,28.6,20.4,30.51,SSE,153,0.0,3.0,71,0.00,,---,0.00,VWS V14.01,2013-11-20 08:57:00,
2013-11-20 04:00:00,28.8,20.6,30.51,NW,313,0.0,3.0,71,0.00,,---,0.00,VWS V14.01,2013-11-20 09:00:00,
2013-11-20 04:02:00,29.0,20.5,30.51,WNW,300,0.0,1.0,70,0.00,,---,0.00,VWS V14.01,2013-11-20 09:02:00,
2013-11-20 04:07:00,29.2,20.6,30.51,NNE,25,0.0,2.0,70,0.00,,---,0.00,VWS V14.01,2013-11-20 09:07:00,
2013-11-20 04:12:00,29.1,20.5,30.51,WNW,302,0.0,2.0,70,0.00,,---,0.00,VWS V14.01,2013-11-20 09:12:00,
2013-11-20 04:17:00,29.0,20.5,30.51,ESE,106,0.0,2.0,70,0.00,,---,0.00,VWS V14.01,2013-11-20 09:17:00,
2013-11-20 04:22:00,28.9,20.4,30.52,NNW,330,0.0,2.0,70,0.00,,---,0.00,VWS V14.01,2013-11-20 09:22:00,
2013-11-20 04:27:00,28.8,20.3,30.52,NNW,330,0.0,2.0,70,0.00,,---,0.00,VWS V14.01,2013-11-20 09:27:00,
2013-11-20 04:30:00,28.7,20.5,30.52,NW,325,0.0,2.0,71,0.00,,---,0.00,VWS V14.01,2013-11-20 09:30:00,
2013-11-20 04:32:00,28.6,20.4,30.52,NW,325,0.0,0.0,71,0.00,,---,0.00,VWS V14.01,2013-11-20 09:32:00,
2013-11-20 04:37:00,28.5,20.3,30.52,NW,311,0.0,2.0,71,0.00,,---,0.00,VWS V14.01,2013-11-20 09:37:00,
2013-11-20 04:42:00,28.3,20.4,30.52,NW,319,0.0,2.0,72,0.00,,---,0.00,VWS V14.01,2013-11-20 09:42:00,
2013-11-20 04:47:00,28.4,20.5,30.52,NNE,16,0.0,2.0,72,0.00,,---,0.00,VWS V14.01,2013-11-20 09:47:00,
2013-11-20 04:52:00,28.7,20.5,30.52,NE,38,0.0,2.0,71,0.00,,---,0.00,VWS V14.01,2013-11-20 09:52:00,
2013-11-20 04:57:00,28.6,20.4,30.53,NNE,15,1.0,4.0,71,0.00,,---,0.00,VWS V14.01,2013-11-20 09:57:00,
2013-11-20 05:00:00,28.5,20.6,30.53,WNW,296,0.0,4.0,72,0.00,,---,0.00,VWS V14.01,2013-11-20 10:00:00,
2013-11-20 05:02:00,28.4,20.5,30.53,North,349,0.0,2.0,72,0.00,,---,0.00,VWS V14.01,2013-11-20 10:02:00,
2013-11-20 05:07:00,28.8,20.9,30.53,NW,326,1.0,6.0,72,0.00,,---,0.00,VWS V14.01,2013-11-20 10:07:00,
2013-11-20 05:12:00,29.2,21.0,30.53,NNE,18,0.0,6.0,71,0.00,,---,0.00,VWS V14.01,2013-11-20 10:12:00,
2013-11-20 05:17:00,29.2,20.6,30.53,North,356,0.0,6.0,70,0.00,,---,0.00,VWS V14.01,2013-11-20 10:17:00,
2013-11-20 05:22:00,28.9,20.7,30.53,NNE,23,0.0,6.0,71,0.00,,---,0.00,VWS V14.01,2013-11-20 10:22:00,
2013-11-20 05:27:00,29.1,20.9,30.53,NE,51,3.0,6.0,71,0.00,,---,0.00,VWS V14.01,2013-11-20 10:27:00,
2013-11-20 05:30:00,29.1,20.5,30.53,NNE,18,1.0,6.0,70,0.00,,---,0.00,VWS V14.01,2013-11-20 10:30:00,
2013-11-20 05:32:00,29.1,20.9,30.54,NE,49,0.0,2.0,71,0.00,,---,0.00,VWS V14.01,2013-11-20 10:32:00,
2013-11-20 05:37:00,28.9,20.7,30.53,NNW,347,0.0,2.0,71,0.00,,---,0.00,VWS V14.01,2013-11-20 10:37:00,
2013-11-20 05:42:00,28.6,20.4,30.53,NNE,27,0.0,2.0,71,0.00,,---,0.00,VWS V14.01,2013-11-20 10:42:00,
2013-11-20 05:47:00,28.2,20.4,30.53,West,276,0.0,2.0,72,0.00,,---,0.00,VWS V14.01,2013-11-20 10:47:00,
2013-11-20 05:52:00,27.7,20.2,30.54,NNE,21,0.0,2.0,73,0.00,,---,0.00,VWS V14.01,2013-11-20 10:52:00,
2013-11-20 05:57:00,27.4,20.2,30.54,NNE,19,0.0,2.0,74,0.00,,---,0.00,VWS V14.01,2013-11-20 10:57:00,
2013-11-20 06:00:00,27.5,20.3,30.54,NW,321,1.0,2.0,74,0.00,,---,0.00,VWS V14.01,2013-11-20 11:00:00,
2013-11-20 06:02:00,27.6,20.4,30.54,NW,320,0.0,1.0,74,0.00,,---,0.00,VWS V14.01,2013-11-20 11:02:00,
2013-11-20 06:07:00,27.7,20.5,30.54,West,259,0.0,1.0,74,0.00,,---,0.00,VWS V14.01,2013-11-20 11:07:00,
2013-11-20 06:12:00,27.7,20.2,30.54,West,259,0.0,1.0,73,0.00,,---,0.00,VWS V14.01,2013-11-20 11:12:00,
2013-11-20 06:17:00,27.3,20.1,30.54,West,259,0.0,1.0,74,0.00,,---,0.00,VWS V14.01,2013-11-20 11:17:00,
2013-11-20 06:22:00,27.1,20.2,30.54,SSW,203,0.0,1.0,75,0.00,,---,0.00,VWS V14.01,2013-11-20 11:22:00,
2013-11-20 06:27:00,27.1,20.2,30.54,SE,137,0.0,1.0,75,0.00,,---,0.00,VWS V14.01,2013-11-20 11:27:00,
2013-11-20 06:30:00,27.1,20.2,30.54,SE,139,0.0,1.0,75,0.00,,---,0.00,VWS V14.01,2013-11-20 11:30:00,
2013-11-20 06:32:00,27.1,20.5,30.54,SE,138,0.0,1.0,76,0.00,,---,0.00,VWS V14.01,2013-11-20 11:32:00,
2013-11-20 06:37:00,26.7,20.5,30.55,NNE,33,0.0,1.0,77,0.00,,---,0.00,VWS V14.01,2013-11-20 11:37:00,
2013-11-20 06:42:00,26.7,20.8,30.55,SE,146,0.0,1.0,78,0.00,,---,0.00,VWS V14.01,2013-11-20 11:42:00,
2013-11-20 06:47:00,26.6,20.7,30.55,SSE,167,0.0,1.0,78,0.00,,---,0.00,VWS V14.01,2013-11-20 11:47:00,
2013-11-20 06:52:00,26.4,20.8,30.55,South,189,0.0,1.0,79,0.00,,---,0.00,VWS V14.01,2013-11-20 11:52:00,
2013-11-20 06:57:00,26.3,20.7,30.56,SSW,204,0.0,1.0,79,0.00,,---,0.00,VWS V14.01,2013-11-20 11:57:00,
2013-11-20 07:00:00,26.3,20.7,30.56,SSW,204,0.0,1.0,79,0.00,,---,0.00,VWS V14.01,2013-11-20 12:00:00,
2013-11-20 07:02:00,26.3,20.7,30.56,SSE,148,0.0,0.0,79,0.00,,---,0.00,VWS V14.01,2013-11-20 12:02:00,
2013-11-20 07:07:00,26.5,20.9,30.56,ESE,106,0.0,1.0,79,0.00,,---,0.00,VWS V14.01,2013-11-20 12:07:00,
2013-11-20 07:12:00,26.2,20.9,30.56,SSE,160,0.0,1.0,80,0.00,,---,0.00,VWS V14.01,2013-11-20 12:12:00,
2013-11-20 07:17:00,26.1,20.8,30.56,NNE,30,0.0,1.0,80,0.00,,---,0.00,VWS V14.01,2013-11-20 12:17:00,
2013-11-20 07:22:00,26.1,20.8,30.56,NNE,25,1.0,1.0,80,0.00,,---,0.00,VWS V14.01,2013-11-20 12:22:00,
2013-11-20 07:27:00,26.3,21.0,30.56,NE,41,1.0,2.0,80,0.00,,---,0.00,VWS V14.01,2013-11-20 12:27:00,
2013-11-20 07:30:00,26.4,21.1,30.57,North,11,0.0,2.0,80,0.00,,---,0.00,VWS V14.01,2013-11-20 12:30:00,
2013-11-20 07:32:00,26.4,20.8,30.57,NE,44,0.0,1.0,79,0.00,,---,0.00,VWS V14.01,2013-11-20 12:32:00,
2013-11-20 07:37:00,26.6,21.0,30.57,East,84,0.0,1.0,79,0.00,,---,0.00,VWS V14.01,2013-11-20 12:37:00,
2013-11-20 07:42:00,26.8,21.2,30.57,ENE,68,0.0,1.0,79,0.00,,---,0.00,VWS V14.01,2013-11-20 12:42:00,
2013-11-20 07:47:00,26.6,21.0,30.57,NE,37,0.0,2.0,79,0.00,,---,0.00,VWS V14.01,2013-11-20 12:47:00,
2013-11-20 07:52:00,26.5,21.2,30.57,NE,55,0.0,2.0,80,0.00,,---,0.00,VWS V14.01,2013-11-20 12:52:00,
2013-11-20 07:57:00,26.6,21.3,30.57,NE,52,0.0,2.0,80,0.00,,---,0.00,VWS V14.01,2013-11-20 12:57:00,
2013-11-20 08:00:00,26.5,21.2,30.57,ENE,58,0.0,2.0,80,0.00,,---,0.00,VWS V14.01,2013-11-20 13:00:00,
2013-11-20 08:02:00,26.5,21.2,30.57,ENE,58,0.0,0.0,80,0.00,,---,0.00,VWS V14.01,2013-11-20 13:02:00,
2013-11-20 08:07:00,26.6,21.6,30.57,ENE,61,0.0,1.0,81,0.00,,---,0.00,VWS V14.01,2013-11-20 13:07:00,
2013-11-20 08:12:00,26.8,21.8,30.58,ENE,60,0.0,1.0,81,0.00,,---,0.00,VWS V14.01,2013-11-20 13:12:00,
2013-11-20 08:17:00,26.9,21.9,30.58,ENE,61,0.0,1.0,81,0.00,,---,0.00,VWS V14.01,2013-11-20 13:17:00,
2013-11-20 08:22:00,27.3,22.0,30.58,East,80,0.0,1.0,80,0.00,,---,0.00,VWS V14.01,2013-11-20 13:22:00,
2013-11-20 08:27:00,27.7,22.4,30.59,SE,124,0.0,1.0,80,0.00,,---,0.00,VWS V14.01,2013-11-20 13:27:00,
2013-11-20 08:30:00,27.9,22.2,30.58,SSE,167,0.0,1.0,79,0.00,,---,0.00,VWS V14.01,2013-11-20 13:30:00,
2013-11-20 08:32:00,28.1,22.4,30.59,SSE,167,0.0,0.0,79,0.00,,---,0.00,VWS V14.01,2013-11-20 13:32:00,
2013-11-20 08:37:00,28.2,22.5,30.59,SSE,167,0.0,0.0,79,0.00,,---,0.00,VWS V14.01,2013-11-20 13:37:00,
2013-11-20 08:42:00,28.5,22.8,30.59,SSE,167,0.0,0.0,79,0.00,,---,0.00,VWS V14.01,2013-11-20 13:42:00,
2013-11-20 08:47:00,28.7,22.7,30.59,SSE,167,0.0,0.0,78,0.00,,---,0.00,VWS V14.01,2013-11-20 13:47:00,
2013-11-20 08:52:00,28.9,22.9,30.59,South,172,0.0,0.0,78,0.00,,---,0.00,VWS V14.01,2013-11-20 13:52:00,
2013-11-20 08:57:00,29.3,22.7,30.59,ESE,120,0.0,1.0,76,0.00,,---,0.00,VWS V14.01,2013-11-20 13:57:00,
2013-11-20 09:00:00,33.9,23.4,30.60,ESE,103,0.0,2.0,65,0.00,,---,0.00,VWS V14.01,2013-11-20 14:00:00,
2013-11-20 09:02:00,29.6,23.3,30.60,ESE,105,0.0,0.0,77,0.00,,---,0.00,VWS V14.01,2013-11-20 14:02:00,
2013-11-20 09:07:00,29.9,23.3,30.60,North,9,0.0,1.0,76,0.00,,---,0.00,VWS V14.01,2013-11-20 14:07:00,
2013-11-20 09:12:00,30.5,23.5,30.60,SSE,153,0.0,1.0,75,0.00,,---,0.00,VWS V14.01,2013-11-20 14:12:00,
2013-11-20 09:17:00,31.1,23.5,30.60,NE,39,0.0,1.0,73,0.00,,---,0.00,VWS V14.01,2013-11-20 14:17:00,
2013-11-20 09:22:00,31.4,23.1,30.60,East,88,0.0,1.0,71,0.00,,---,0.00,VWS V14.01,2013-11-20 14:22:00,
2013-11-20 09:27:00,31.6,23.0,30.60,SE,141,0.0,2.0,70,0.00,,---,0.00,VWS V14.01,2013-11-20 14:27:00,
2013-11-20 09:30:00,31.8,23.5,30.60,NE,46,1.0,2.0,71,0.00,,---,0.00,VWS V14.01,2013-11-20 14:30:00,
2013-11-20 09:32:00,32.0,23.7,30.60,ENE,75,0.0,1.0,71,0.00,,---,0.00,VWS V14.01,2013-11-20 14:32:00,
2013-11-20 09:37:00,32.3,23.3,30.60,SSE,151,0.0,2.0,69,0.00,,---,0.00,VWS V14.01,2013-11-20 14:37:00,
2013-11-20 09:42:00,32.8,23.8,30.60,SSE,151,0.0,2.0,69,0.00,,---,0.00,VWS V14.01,2013-11-20 14:42:00,
2013-11-20 09:47:00,33.3,23.9,30.60,ENE,71,0.0,2.0,68,0.00,,---,0.00,VWS V14.01,2013-11-20 14:47:00,
2013-11-20 09:52:00,33.3,23.5,30.60,North,359,0.0,2.0,67,0.00,,---,0.00,VWS V14.01,2013-11-20 14:52:00,
2013-11-20 09:57:00,33.8,23.7,30.61,ESE,111,0.0,2.0,66,0.00,,---,0.00,VWS V14.01,2013-11-20 14:57:00,
2013-11-20 10:00:00,33.9,23.4,30.60,ESE,103,0.0,2.0,65,0.00,,---,0.00,VWS V14.01,2013-11-20 15:00:00,
2013-11-20 10:02:00,34.0,23.5,30.60,SE,127,0.0,2.0,65,0.00,,---,0.00,VWS V14.01,2013-11-20 15:02:00,
2013-11-20 10:07:00,34.4,23.9,30.60,SE,131,0.0,2.0,65,0.00,,---,0.00,VWS V14.01,2013-11-20 15:07:00,
2013-11-20 10:12:00,34.9,24.3,30.60,NE,56,0.0,2.0,65,0.00,,---,0.00,VWS V14.01,2013-11-20 15:12:00,
2013-11-20 10:17:00,35.5,23.4,30.61,SSW,207,1.0,3.0,61,0.00,,---,0.00,VWS V14.01,2013-11-20 15:17:00,
2013-11-20 10:22:00,35.8,23.3,30.61,ESE,116,0.0,3.0,60,0.00,,---,0.00,VWS V14.01,2013-11-20 15:22:00,
2013-11-20 10:27:00,36.1,22.8,30.61,East,86,0.0,4.0,58,0.00,,---,0.00,VWS V14.01,2013-11-20 15:27:00,
2013-11-20 10:30:00,36.1,22.4,30.61,ENE,74,2.0,4.0,57,0.00,,---,0.00,VWS V14.01,2013-11-20 15:30:00,
2013-11-20 10:32:00,36.1,22.4,30.61,East,91,2.0,6.0,57,0.00,,---,0.00,VWS V14.01,2013-11-20 15:32:00,
2013-11-20 10:37:00,36.3,22.1,30.61,South,169,3.0,6.0,56,0.00,,---,0.00,VWS V14.01,2013-11-20 15:37:00,
2013-11-20 10:42:00,36.7,22.1,30.60,NE,49,1.0,6.0,55,0.00,,---,0.00,VWS V14.01,2013-11-20 15:42:00,
2013-11-20 10:47:00,37.3,22.2,30.60,ESE,115,3.0,6.0,54,0.00,,---,0.00,VWS V14.01,2013-11-20 15:47:00,
2013-11-20 10:52:00,37.4,21.9,30.60,East,80,2.0,6.0,53,0.00,,---,0.00,VWS V14.01,2013-11-20 15:52:00,
2013-11-20 10:57:00,37.6,21.1,30.60,ENE,76,2.0,6.0,51,0.00,,---,0.00,VWS V14.01,2013-11-20 15:57:00,
2013-11-20 11:00:00,37.6,21.1,30.60,ENE,58,4.0,6.0,51,0.00,,---,0.00,VWS V14.01,2013-11-20 16:00:00,
2013-11-20 11:02:00,37.7,21.2,30.60,East,98,4.0,4.0,51,0.00,,---,0.00,VWS V14.01,2013-11-20 16:02:00,
2013-11-20 11:07:00,38.0,21.5,30.60,East,96,3.0,6.0,51,0.00,,---,0.00,VWS V14.01,2013-11-20 16:07:00,
2013-11-20 11:12:00,38.3,19.9,30.59,NE,51,0.0,6.0,47,0.00,,---,0.00,VWS V14.01,2013-11-20 16:12:00,
2013-11-20 11:17:00,38.4,19.9,30.59,ENE,67,2.0,6.0,47,0.00,,---,0.00,VWS V14.01,2013-11-20 16:17:00,
2013-11-20 11:22:00,38.4,19.4,30.59,ESE,103,3.0,6.0,46,0.00,,---,0.00,VWS V14.01,2013-11-20 16:22:00,
2013-11-20 11:27:00,38.9,19.9,30.59,East,82,0.0,6.0,46,0.00,,---,0.00,VWS V14.01,2013-11-20 16:27:00,
2013-11-20 11:30:00,41.8,21.5,30.57,SSW,203,2.0,6.0,44,0.00,,---,0.00,VWS V14.01,2013-11-20 16:30:00,
2013-11-20 11:32:00,39.3,19.8,30.58,East,96,1.0,3.0,45,0.00,,---,0.00,VWS V14.01,2013-11-20 16:32:00,
2013-11-20 11:37:00,39.6,20.0,30.58,ESE,118,0.0,3.0,45,0.00,,---,0.00,VWS V14.01,2013-11-20 16:37:00,
2013-11-20 11:42:00,39.9,20.3,30.58,ENE,75,1.0,6.0,45,0.00,,---,0.00,VWS V14.01,2013-11-20 16:42:00,
2013-11-20 11:47:00,40.0,19.9,30.58,SE,143,1.0,6.0,44,0.00,,---,0.00,VWS V14.01,2013-11-20 16:47:00,
2013-11-20 11:52:00,40.2,20.6,30.58,ENE,74,2.0,6.0,45,0.00,,---,0.00,VWS V14.01,2013-11-20 16:52:00,
2013-11-20 11:57:00,40.4,18.6,30.58,East,92,1.0,6.0,41,0.00,,---,0.00,VWS V14.01,2013-11-20 16:57:00,
2013-11-20 12:00:00,40.6,18.8,30.57,SSE,166,0.0,6.0,41,0.00,,---,0.00,VWS V14.01,2013-11-20 17:00:00,
2013-11-20 12:02:00,40.7,18.9,30.57,East,98,0.0,2.0,41,0.00,,---,0.00,VWS V14.01,2013-11-20 17:02:00,
2013-11-20 12:07:00,41.4,20.0,30.57,ESE,119,2.0,2.0,42,0.00,,---,0.00,VWS V14.01,2013-11-20 17:07:00,
2013-11-20 12:12:00,41.8,19.8,30.57,SSE,153,0.0,3.0,41,0.00,,---,0.00,VWS V14.01,2013-11-20 17:12:00,
2013-11-20 12:17:00,41.7,20.9,30.57,ESE,115,2.0,4.0,43,0.00,,---,0.00,VWS V14.01,2013-11-20 17:17:00,
2013-11-20 12:22:00,41.6,21.9,30.57,East,90,1.0,4.0,45,0.00,,---,0.00,VWS V14.01,2013-11-20 17:22:00,
2013-11-20 12:27:00,41.5,22.3,30.57,South,181,2.0,5.0,46,0.00,,---,0.00,VWS V14.01,2013-11-20 17:27:00,
2013-11-20 12:30:00,44.0,21.2,30.56,South,171,0.0,6.0,40,0.00,,---,0.00,VWS V14.01,2013-11-20 17:30:00,
2013-11-20 12:32:00,42.0,21.7,30.57,SE,135,1.0,4.0,44,0.00,,---,0.00,VWS V14.01,2013-11-20 17:32:00,
2013-11-20 12:37:00,42.4,22.6,30.57,South,188,2.0,5.0,45,0.00,,---,0.00,VWS V14.01,2013-11-20 17:37:00,
2013-11-20 12:42:00,42.7,23.4,30.57,SE,141,1.0,5.0,46,0.00,,---,0.00,VWS V14.01,2013-11-20 17:42:00,
2013-11-20 12:47:00,42.7,22.9,30.57,SW,225,3.0,7.0,45,0.00,,---,0.00,VWS V14.01,2013-11-20 17:47:00,
2013-11-20 12:52:00,42.6,23.3,30.57,SSW,212,4.0,7.0,46,0.00,,---,0.00,VWS V14.01,2013-11-20 17:52:00,
2013-11-20 12:57:00,42.5,23.2,30.56,SSE,167,1.0,7.0,46,0.00,,---,0.00,VWS V14.01,2013-11-20 17:57:00,
2013-11-20 13:00:00,44.7,18.1,30.54,SE,136,0.0,4.0,34,0.00,,---,0.00,VWS V14.01,2013-11-20 18:00:00,
2013-11-20 13:02:00,42.9,23.0,30.57,South,190,1.0,2.0,45,0.00,,---,0.00,VWS V14.01,2013-11-20 18:02:00,
2013-11-20 13:07:00,42.8,23.0,30.56,SW,221,3.0,6.0,45,0.00,,---,0.00,VWS V14.01,2013-11-20 18:07:00,
2013-11-20 13:12:00,42.9,23.6,30.56,SSW,212,0.0,6.0,46,0.00,,---,0.00,VWS V14.01,2013-11-20 18:12:00,
2013-11-20 13:17:00,43.0,22.6,30.56,SW,214,0.0,6.0,44,0.00,,---,0.00,VWS V14.01,2013-11-20 18:17:00,
2013-11-20 13:22:00,43.4,22.4,30.56,SSW,196,2.0,6.0,43,0.00,,---,0.00,VWS V14.01,2013-11-20 18:22:00,
2013-11-20 13:27:00,43.6,20.9,30.56,SSE,167,1.0,6.0,40,0.00,,---,0.00,VWS V14.01,2013-11-20 18:27:00,
2013-11-20 13:30:00,44.0,21.2,30.56,South,171,0.0,6.0,40,0.00,,---,0.00,VWS V14.01,2013-11-20 18:30:00,
2013-11-20 13:32:00,44.1,20.7,30.56,SSE,168,0.0,2.0,39,0.00,,---,0.00,VWS V14.01,2013-11-20 18:32:00,
2013-11-20 13:37:00,44.2,19.6,30.55,SW,221,1.0,4.0,37,0.00,,---,0.00,VWS V14.01,2013-11-20 18:37:00,
2013-11-20 13:42:00,44.2,19.0,30.55,SSW,207,3.0,4.0,36,0.00,,---,0.00,VWS V14.01,2013-11-20 18:42:00,
2013-11-20 13:47:00,44.5,19.2,30.55,SE,141,0.0,4.0,36,0.00,,---,0.00,VWS V14.01,2013-11-20 18:47:00,
2013-11-20 13:52:00,44.3,19.0,30.55,ESE,122,0.0,4.0,36,0.00,,---,0.00,VWS V14.01,2013-11-20 18:52:00,
2013-11-20 13:57:00,44.6,18.0,30.55,SSW,199,3.0,4.0,34,0.00,,---,0.00,VWS V14.01,2013-11-20 18:57:00,
2013-11-20 14:00:00,44.7,18.1,30.54,SE,136,0.0,4.0,34,0.00,,---,0.00,VWS V14.01,2013-11-20 19:00:00,
2013-11-20 14:01:00,44.8,18.2,30.55,SSW,192,1.0,4.0,34,0.00,,---,0.00,VWS V14.01,2013-11-20 19:01:00,
2013-11-20 14:06:00,45.1,17.7,30.54,SSW,192,1.0,4.0,33,0.00,,---,0.00,VWS V14.01,2013-11-20 19:06:00,
2013-11-20 14:11:00,45.0,14.7,30.54,ESE,103,2.0,4.0,29,0.00,,---,0.00,VWS V14.01,2013-11-20 19:11:00,
2013-11-20 14:16:00,45.0,14.7,30.54,SW,221,0.0,4.0,29,0.00,,---,0.00,VWS V14.01,2013-11-20 19:16:00,
2013-11-20 14:21:00,45.1,15.5,30.54,ENE,75,0.0,4.0,30,0.00,,---,0.00,VWS V14.01,2013-11-20 19:21:00,
2013-11-20 14:26:00,45.4,15.8,30.54,NE,46,1.0,4.0,30,0.00,,---,0.00,VWS V14.01,2013-11-20 19:26:00,
2013-11-20 14:30:00,45.3,13.3,30.53,East,85,1.0,4.0,27,0.00,,---,0.00,VWS V14.01,2013-11-20 19:30:00,
2013-11-20 14:31:00,45.2,10.6,30.53,South,179,1.0,4.0,24,0.00,,---,0.00,VWS V14.01,2013-11-20 19:31:00,
2013-11-20 14:36:00,45.2,9.6,30.53,SSE,163,1.0,6.0,23,0.00,,---,0.00,VWS V14.01,2013-11-20 19:36:00,
2013-11-20 14:41:00,45.5,9.9,30.53,East,86,1.0,6.0,23,0.00,,---,0.00,VWS V14.01,2013-11-20 19:41:00,
2013-11-20 14:46:00,45.1,7.5,30.53,East,82,4.0,7.0,21,0.00,,---,0.00,VWS V14.01,2013-11-20 19:46:00,
2013-11-20 14:51:00,44.9,7.3,30.53,East,95,3.0,7.0,21,0.00,,---,0.00,VWS V14.01,2013-11-20 19:51:00,
2013-11-20 14:56:00,44.9,8.4,30.53,East,94,1.0,7.0,22,0.00,,---,0.00,VWS V14.01,2013-11-20 19:56:00,
2013-11-20 15:00:00,44.9,8.4,30.53,East,94,0.0,7.0,22,0.00,,---,0.00,VWS V14.01,2013-11-20 20:00:00,
2013-11-20 15:01:00,45.0,8.5,30.53,East,88,1.0,1.0,22,0.00,,---,0.00,VWS V14.01,2013-11-20 20:01:00,
2013-11-20 15:06:00,44.8,9.3,30.53,East,84,2.0,6.0,23,0.00,,---,0.00,VWS V14.01,2013-11-20 20:06:00,
2013-11-20 15:11:00,44.9,10.3,30.53,ENE,62,4.0,6.0,24,0.00,,---,0.00,VWS V14.01,2013-11-20 20:11:00,
2013-11-20 15:16:00,44.6,11.0,30.53,SSE,150,1.0,6.0,25,0.00,,---,0.00,VWS V14.01,2013-11-20 20:16:00,
2013-11-20 15:21:00,44.4,11.7,30.53,East,79,0.0,6.0,26,0.00,,---,0.00,VWS V14.01,2013-11-20 20:21:00,
2013-11-20 15:26:00,44.3,13.3,30.53,SW,217,0.0,6.0,28,0.00,,---,0.00,VWS V14.01,2013-11-20 20:26:00,
2013-11-20 15:30:00,44.1,12.3,30.53,ESE,109,1.0,6.0,27,0.00,,---,0.00,VWS V14.01,2013-11-20 20:30:00,
2013-11-20 15:31:00,44.0,12.2,30.53,East,98,0.0,2.0,27,0.00,,---,0.00,VWS V14.01,2013-11-20 20:31:00,
2013-11-20 15:36:00,43.7,12.8,30.53,East,79,3.0,4.0,28,0.00,,---,0.00,VWS V14.01,2013-11-20 20:36:00,
2013-11-20 15:41:00,43.3,13.2,30.53,ENE,65,0.0,5.0,29,0.00,,---,0.00,VWS V14.01,2013-11-20 20:41:00,
2013-11-20 15:46:00,43.2,13.1,30.53,East,84,0.0,5.0,29,0.00,,---,0.00,VWS V14.01,2013-11-20 20:46:00,
2013-11-20 15:51:00,43.1,13.8,30.53,SSE,153,0.0,5.0,30,0.00,,---,0.00,VWS V14.01,2013-11-20 20:51:00,
2013-11-20 15:56:00,42.8,13.5,30.53,East,101,0.0,5.0,30,0.00,,---,0.00,VWS V14.01,2013-11-20 20:56:00,
2013-11-20 16:00:00,42.8,13.5,30.53,East,93,0.0,5.0,30,0.00,,---,0.00,VWS V14.01,2013-11-20 21:00:00,
2013-11-20 16:01:00,42.7,13.4,30.53,East,99,0.0,1.0,30,0.00,,---,0.00,VWS V14.01,2013-11-20 21:01:00,
2013-11-20 16:06:00,42.5,14.0,30.53,ENE,75,0.0,1.0,31,0.00,,---,0.00,VWS V14.01,2013-11-20 21:06:00,
2013-11-20 16:11:00,42.4,13.2,30.53,ESE,117,1.0,2.0,30,0.00,,---,0.00,VWS V14.01,2013-11-20 21:11:00,
2013-11-20 16:16:00,42.2,13.8,30.53,ESE,114,0.0,2.0,31,0.00,,---,0.00,VWS V14.01,2013-11-20 21:16:00,
2013-11-20 16:21:00,42.0,13.6,30.53,ESE,122,0.0,2.0,31,0.00,,---,0.00,VWS V14.01,2013-11-20 21:21:00,
2013-11-20 16:26:00,41.7,14.7,30.53,ESE,122,0.0,2.0,33,0.00,,---,0.00,VWS V14.01,2013-11-20 21:26:00,
2013-11-20 16:30:00,41.3,15.1,30.53,SSW,205,0.0,2.0,34,0.00,,---,0.00,VWS V14.01,2013-11-20 21:30:00,
2013-11-20 16:31:00,41.1,14.2,30.53,SSW,205,0.0,0.0,33,0.00,,---,0.00,VWS V14.01,2013-11-20 21:31:00,
2013-11-20 16:36:00,40.6,14.4,30.53,SSW,205,0.0,0.0,34,0.00,,---,0.00,VWS V14.01,2013-11-20 21:36:00,
2013-11-20 16:41:00,40.0,14.6,30.53,SSW,205,0.0,0.0,35,0.00,,---,0.00,VWS V14.01,2013-11-20 21:41:00,
2013-11-20 16:46:00,39.6,14.2,30.53,SSW,205,0.0,0.0,35,0.00,,---,0.00,VWS V14.01,2013-11-20 21:46:00,
2013-11-20 16:51:00,39.3,14.6,30.53,SSW,205,0.0,0.0,36,0.00,,---,0.00,VWS V14.01,2013-11-20 21:51:00,
2013-11-20 16:56:00,38.8,15.4,30.53,SSW,205,0.0,0.0,38,0.00,,---,0.00,VWS V14.01,2013-11-20 21:56:00,
2013-11-20 17:00:00,38.7,15.3,30.53,SSW,205,0.0,0.0,38,0.00,,---,0.00,VWS V14.01,2013-11-20 22:00:00,
2013-11-20 17:01:00,38.6,15.8,30.53,SSW,205,0.0,0.0,39,0.00,,---,0.00,VWS V14.01,2013-11-20 22:01:00,
2013-11-20 17:06:00,38.1,14.8,30.53,SSW,205,0.0,0.0,38,0.00,,---,0.00,VWS V14.01,2013-11-20 22:06:00,
2013-11-20 17:11:00,37.6,14.3,30.53,SSW,205,0.0,0.0,38,0.00,,---,0.00,VWS V14.01,2013-11-20 22:11:00,
2013-11-20 17:16:00,37.5,14.8,30.53,SSW,205,0.0,0.0,39,0.00,,---,0.00,VWS V14.01,2013-11-20 22:16:00,
2013-11-20 17:21:00,37.5,14.8,30.54,SSW,196,0.0,0.0,39,0.00,,---,0.00,VWS V14.01,2013-11-20 22:21:00,
2013-11-20 17:26:00,37.2,14.5,30.53,SSW,196,0.0,0.0,39,0.00,,---,0.00,VWS V14.01,2013-11-20 22:26:00,
2013-11-20 17:30:00,37.1,15.0,30.53,SSW,196,0.0,0.0,40,0.00,,---,0.00,VWS V14.01,2013-11-20 22:30:00,
2013-11-20 17:31:00,37.0,14.9,30.53,SSW,196,0.0,0.0,40,0.00,,---,0.00,VWS V14.01,2013-11-20 22:31:00,
2013-11-20 17:36:00,36.6,14.6,30.53,SSW,196,0.0,0.0,40,0.00,,---,0.00,VWS V14.01,2013-11-20 22:36:00,
2013-11-20 17:41:00,36.1,15.2,30.54,SSW,197,0.0,0.0,42,0.00,,---,0.00,VWS V14.01,2013-11-20 22:41:00,
2013-11-20 17:46:00,35.8,15.5,30.54,SSW,197,0.0,0.0,43,0.00,,---,0.00,VWS V14.01,2013-11-20 22:46:00,
2013-11-20 17:51:00,35.5,15.2,30.54,SSW,197,0.0,0.0,43,0.00,,---,0.00,VWS V14.01,2013-11-20 22:51:00,
2013-11-20 17:56:00,35.4,15.7,30.54,SSW,197,0.0,0.0,44,0.00,,---,0.00,VWS V14.01,2013-11-20 22:56:00,
2013-11-20 18:00:00,35.2,16.5,30.54,SSW,197,0.0,0.0,46,0.00,,---,0.00,VWS V14.01,2013-11-20 23:00:00,
2013-11-20 18:01:00,35.0,16.3,30.54,SSW,197,0.0,0.0,46,0.00,,---,0.00,VWS V14.01,2013-11-20 23:01:00,
2013-11-20 18:06:00,34.5,16.4,30.54,SW,224,0.0,0.0,47,0.00,,---,0.00,VWS V14.01,2013-11-20 23:06:00,
2013-11-20 18:11:00,34.3,16.2,30.54,SW,224,0.0,0.0,47,0.00,,---,0.00,VWS V14.01,2013-11-20 23:11:00,
2013-11-20 18:16:00,34.4,16.3,30.54,SW,224,0.0,0.0,47,0.00,,---,0.00,VWS V14.01,2013-11-20 23:16:00,
2013-11-20 18:21:00,34.3,16.2,30.55,SW,224,0.0,0.0,47,0.00,,---,0.00,VWS V14.01,2013-11-20 23:21:00,
2013-11-20 18:26:00,34.3,16.2,30.55,WSW,238,0.0,0.0,47,0.00,,---,0.00,VWS V14.01,2013-11-20 23:26:00,
2013-11-20 18:30:00,34.1,15.5,30.55,WSW,238,0.0,0.0,46,0.00,,---,0.00,VWS V14.01,2013-11-20 23:30:00,
2013-11-20 18:31:00,34.0,14.9,30.55,WSW,238,0.0,0.0,45,0.00,,---,0.00,VWS V14.01,2013-11-20 23:31:00,
2013-11-20 18:36:00,33.5,15.4,30.55,WSW,238,0.0,0.0,47,0.00,,---,0.00,VWS V14.01,2013-11-20 23:36:00,
2013-11-20 18:41:00,33.3,15.3,30.55,WSW,238,0.0,0.0,47,0.00,,---,0.00,VWS V14.01,2013-11-20 23:41:00,
2013-11-20 18:46:00,33.0,15.0,30.55,WSW,238,0.0,0.0,47,0.00,,---,0.00,VWS V14.01,2013-11-20 23:46:00,
2013-11-20 18:51:00,33.0,15.0,30.55,WSW,238,0.0,0.0,47,0.00,,---,0.00,VWS V14.01,2013-11-20 23:51:00,
2013-11-20 18:56:00,33.0,15.5,30.56,SW,236,0.0,0.0,48,0.00,,---,0.00,VWS V14.01,2013-11-20 23:56:00,
2013-11-20 19:00:00,32.8,15.8,30.56,SW,222,0.0,0.0,49,0.00,,---,0.00,VWS V14.01,2013-11-21 00:00:00,
2013-11-20 19:01:00,32.8,15.3,30.56,SW,222,0.0,0.0,48,0.00,,---,0.00,VWS V14.01,2013-11-21 00:01:00,
2013-11-20 19:06:00,32.8,15.3,30.56,SW,222,0.0,0.0,48,0.00,,---,0.00,VWS V14.01,2013-11-21 00:06:00,
2013-11-20 19:11:00,32.9,15.9,30.56,WSW,241,0.0,0.0,49,0.00,,---,0.00,VWS V14.01,2013-11-21 00:11:00,
2013-11-20 19:16:00,32.8,16.2,30.56,WSW,241,0.0,0.0,50,0.00,,---,0.00,VWS V14.01,2013-11-21 00:16:00,
2013-11-20 19:21:00,32.7,16.1,30.57,WSW,240,0.0,0.0,50,0.00,,---,0.00,VWS V14.01,2013-11-21 00:21:00,
2013-11-20 19:26:00,32.5,16.9,30.57,WSW,240,0.0,0.0,52,0.00,,---,0.00,VWS V14.01,2013-11-21 00:26:00,
2013-11-20 19:30:00,32.4,16.8,30.57,WSW,240,0.0,0.0,52,0.00,,---,0.00,VWS V14.01,2013-11-21 00:30:00,
2013-11-20 19:31:00,32.3,16.7,30.57,WSW,240,0.0,0.0,52,0.00,,---,0.00,VWS V14.01,2013-11-21 00:31:00,
2013-11-20 19:36:00,31.9,16.7,30.57,WSW,240,0.0,0.0,53,0.00,,---,0.00,VWS V14.01,2013-11-21 00:36:00,
2013-11-20 19:41:00,31.8,16.6,30.57,WSW,240,0.0,0.0,53,0.00,,---,0.00,VWS V14.01,2013-11-21 00:41:00,
2013-11-20 19:46:00,31.5,16.4,30.57,WSW,240,0.0,0.0,53,0.00,,---,0.00,VWS V14.01,2013-11-21 00:46:00,
2013-11-20 19:51:00,31.1,16.4,30.57,WSW,240,0.0,0.0,54,0.00,,---,0.00,VWS V14.01,2013-11-21 00:51:00,
2013-11-20 19:56:00,30.7,16.0,30.57,WSW,240,0.0,0.0,54,0.00,,---,0.00,VWS V14.01,2013-11-21 00:56:00,
2013-11-20 20:00:00,30.7,16.5,30.57,WSW,240,0.0,0.0,55,0.00,,---,0.00,VWS V14.01,2013-11-21 01:00:00,
2013-11-20 20:01:00,30.8,16.5,30.57,WSW,240,0.0,0.0,55,0.00,,---,0.00,VWS V14.01,2013-11-21 01:01:00,
2013-11-20 20:06:00,31.3,17.0,30.57,WSW,242,0.0,0.0,55,0.00,,---,0.00,VWS V14.01,2013-11-21 01:06:00,
2013-11-20 20:11:00,31.5,16.8,30.57,West,278,1.0,1.0,54,0.00,,---,0.00,VWS V14.01,2013-11-21 01:11:00,
2013-11-20 20:16:00,31.5,15.9,30.57,West,278,0.0,1.0,52,0.00,,---,0.00,VWS V14.01,2013-11-21 01:16:00,
2013-11-20 20:21:00,31.6,16.5,30.57,WNW,287,0.0,1.0,53,0.00,,---,0.00,VWS V14.01,2013-11-21 01:21:00,
2013-11-20 20:26:00,31.7,16.1,30.58,WNW,287,0.0,1.0,52,0.00,,---,0.00,VWS V14.01,2013-11-21 01:26:00,
2013-11-20 20:30:00,31.7,15.7,30.58,WNW,287,0.0,1.0,51,0.00,,---,0.00,VWS V14.01,2013-11-21 01:30:00,
2013-11-20 20:31:00,31.7,14.3,30.58,WNW,287,0.0,0.0,48,0.00,,---,0.00,VWS V14.01,2013-11-21 01:31:00,
2013-11-20 20:36:00,31.9,15.8,30.58,WNW,288,0.0,1.0,51,0.00,,---,0.00,VWS V14.01,2013-11-21 01:36:00,
2013-11-20 20:41:00,31.9,14.9,30.57,WNW,295,0.0,1.0,49,0.00,,---,0.00,VWS V14.01,2013-11-21 01:41:00,
2013-11-20 20:46:00,32.1,13.7,30.57,WNW,294,0.0,1.0,46,0.00,,---,0.00,VWS V14.01,2013-11-21 01:46:00,
2013-11-20 20:51:00,32.2,14.2,30.57,WNW,295,0.0,1.0,47,0.00,,---,0.00,VWS V14.01,2013-11-21 01:51:00,
2013-11-20 20:56:00,32.3,13.4,30.57,WNW,294,0.0,1.0,45,0.00,,---,0.00,VWS V14.01,2013-11-21 01:56:00,
2013-11-20 21:00:00,32.4,14.4,30.57,WNW,295,0.0,1.0,47,0.00,,---,0.00,VWS V14.01,2013-11-21 02:00:00,
2013-11-20 21:01:00,32.4,13.9,30.57,WNW,295,0.0,0.0,46,0.00,,---,0.00,VWS V14.01,2013-11-21 02:01:00,
2013-11-20 21:06:00,32.3,13.4,30.57,WNW,295,0.0,0.0,45,0.00,,---,0.00,VWS V14.01,2013-11-21 02:06:00,
2013-11-20 21:11:00,32.7,13.7,30.57,ESE,102,0.0,1.0,45,0.00,,---,0.00,VWS V14.01,2013-11-21 02:11:00,
2013-11-20 21:16:00,32.4,13.4,30.57,ESE,103,0.0,1.0,45,0.00,,---,0.00,VWS V14.01,2013-11-21 02:16:00,
2013-11-20 21:21:00,32.1,13.7,30.57,NW,310,0.0,0.0,46,0.00,,---,0.00,VWS V14.01,2013-11-21 02:21:00,
2013-11-20 21:26:00,31.8,13.4,30.57,North,350,0.0,0.0,46,0.00,,---,0.00,VWS V14.01,2013-11-21 02:26:00,
2013-11-20 21:30:00,32.0,13.6,30.57,NW,313,0.0,1.0,46,0.00,,---,0.00,VWS V14.01,2013-11-21 02:30:00,
2013-11-20 21:31:00,32.1,14.2,30.57,NW,313,0.0,0.0,47,0.00,,---,0.00,VWS V14.01,2013-11-21 02:31:00,
2013-11-20 21:36:00,31.9,14.4,30.57,NW,309,0.0,1.0,48,0.00,,---,0.00,VWS V14.01,2013-11-21 02:36:00,
2013-11-20 21:41:00,31.8,14.4,30.57,North,352,0.0,1.0,48,0.00,,---,0.00,VWS V14.01,2013-11-21 02:41:00,
2013-11-20 21:46:00,31.7,14.3,30.57,West,269,0.0,1.0,48,0.00,,---,0.00,VWS V14.01,2013-11-21 02:46:00,
2013-11-20 21:51:00,31.5,14.6,30.57,West,274,0.0,1.0,49,0.00,,---,0.00,VWS V14.01,2013-11-21 02:51:00,
2013-11-20 21:56:00,31.7,13.3,30.58,NW,311,0.0,1.0,46,0.00,,---,0.00,VWS V14.01,2013-11-21 02:56:00,
2013-11-20 22:00:00,32.0,14.6,30.58,NW,307,0.0,1.0,48,0.00,,---,0.00,VWS V14.01,2013-11-21 03:00:00,
2013-11-20 22:01:00,31.9,14.4,30.58,NW,306,0.0,1.0,48,0.00,,---,0.00,VWS V14.01,2013-11-21 03:01:00,
2013-11-20 22:06:00,31.8,13.9,30.58,NNW,338,0.0,1.0,47,0.00,,---,0.00,VWS V14.01,2013-11-21 03:06:00,
2013-11-20 22:11:00,31.7,13.8,30.58,NNW,338,0.0,1.0,47,0.00,,---,0.00,VWS V14.01,2013-11-21 03:11:00,
2013-11-20 22:16:00,31.5,14.1,30.58,NNW,338,0.0,1.0,48,0.00,,---,0.00,VWS V14.01,2013-11-21 03:16:00,
2013-11-20 22:21:00,31.0,14.1,30.58,WNW,302,0.0,3.0,49,0.00,,---,0.00,VWS V14.01,2013-11-21 03:21:00,
2013-11-20 22:26:00,30.8,14.8,30.58,West,279,0.0,3.0,51,0.00,,---,0.00,VWS V14.01,2013-11-21 03:26:00,
2013-11-20 22:30:00,30.7,14.3,30.58,NW,324,0.0,3.0,50,0.00,,---,0.00,VWS V14.01,2013-11-21 03:30:00,
2013-11-20 22:31:00,30.7,13.8,30.58,NW,323,0.0,0.0,49,0.00,,---,0.00,VWS V14.01,2013-11-21 03:31:00,
2013-11-20 22:36:00,30.5,14.5,30.58,WSW,252,0.0,1.0,51,0.00,,---,0.00,VWS V14.01,2013-11-21 03:36:00,
2013-11-20 22:41:00,30.2,14.3,30.58,WSW,252,0.0,1.0,51,0.00,,---,0.00,VWS V14.01,2013-11-21 03:41:00,
2013-11-20 22:46:00,30.0,13.6,30.59,SW,217,0.0,1.0,50,0.00,,---,0.00,VWS V14.01,2013-11-21 03:46:00,
2013-11-20 22:51:00,30.0,14.1,30.59,West,277,1.0,1.0,51,0.00,,---,0.00,VWS V14.01,2013-11-21 03:51:00,
2013-11-20 22:56:00,29.8,14.3,30.59,NW,307,0.0,1.0,52,0.00,,---,0.00,VWS V14.01,2013-11-21 03:56:00,
2013-11-20 23:00:00,29.7,14.2,30.59,West,275,0.0,1.0,52,0.00,,---,0.00,VWS V14.01,2013-11-21 04:00:00,
2013-11-20 23:01:00,29.7,14.2,30.59,West,275,0.0,0.0,52,0.00,,---,0.00,VWS V14.01,2013-11-21 04:01:00,
2013-11-20 23:06:00,30.1,13.7,30.59,West,264,0.0,1.0,50,0.00,,---,0.00,VWS V14.01,2013-11-21 04:06:00,
2013-11-20 23:11:00,30.2,13.4,30.59,WNW,301,0.0,1.0,49,0.00,,---,0.00,VWS V14.01,2013-11-21 04:11:00,
2013-11-20 23:16:00,30.6,13.3,30.59,West,266,0.0,1.0,48,0.00,,---,0.00,VWS V14.01,2013-11-21 04:16:00,
2013-11-20 23:21:00,30.6,13.3,30.59,West,266,0.0,1.0,48,0.00,,---,0.00,VWS V14.01,2013-11-21 04:21:00,
2013-11-20 23:26:00,30.4,13.5,30.59,West,271,0.0,1.0,49,0.00,,---,0.00,VWS V14.01,2013-11-21 04:26:00,
2013-11-20 23:30:00,30.1,13.7,30.59,WSW,257,0.0,1.0,50,0.00,,---,0.00,VWS V14.01,2013-11-21 04:30:00,
2013-11-20 23:31:00,30.0,13.6,30.59,WSW,257,0.0,0.0,50,0.00,,---,0.00,VWS V14.01,2013-11-21 04:31:00,
2013-11-20 23:36:00,29.6,14.1,30.59,WNW,285,0.0,2.0,52,0.00,,---,0.00,VWS V14.01,2013-11-21 04:36:00,
2013-11-20 23:41:00,29.5,13.6,30.59,WNW,282,1.0,2.0,51,0.00,,---,0.00,VWS V14.01,2013-11-21 04:41:00,
2013-11-20 23:46:00,29.6,11.9,30.59,SSW,193,0.0,2.0,47,0.00,,---,0.00,VWS V14.01,2013-11-21 04:46:00,
2013-11-20 23:51:00,30.0,11.7,30.59,SSE,155,0.0,2.0,46,0.00,,---,0.00,VWS V14.01,2013-11-21 04:51:00,
2013-11-20 23:56:00,30.1,11.8,30.59,SSE,155,0.0,2.0,46,0.00,,---,0.00,VWS V14.01,2013-11-21 04:56:00,